"Pseudo-MPEC" for P20JFzV

Created 2018 Oct 13 14:18:10 UT using Find_Orb

Click here for an explanation of pseudo-MPECs

 
 Astrometry: 
     P20JFzV  C2018 10 10pnAstrometryodF5\LZ1kqQyrEX!PUM[t%#*s@!AiegXGm92^dd7F52
     P20JFzV  C2018 10 10\cUn_#l@?LnyOyroTm8?[q@Nd,g(J$342,MiRn/$bTo4#I'pBbA7F52
     P20JFzV  C2018 10 10+IXgs6+a$qmR`EI#eW2y5['_XCt41ClR=)7X-bK_J_LMV7_BkNWLF52
     P20JFzV KC2018 10 1135o90*$SPVJ3G(A/-redacted;Z1Wt7_*OxLtL)F9?;,Oy0\P@-=K88
     P20JFzV KC2018 10 11g5^PCsaTGymQ(kWq`0Y=bqE!RAAWq*3MQ2@\nf9p]SrngidO:Et;K88
     P20JFzV KC2018 10 11E4gk8@uKG7h+T/Uk'_)q$Y1I-'H4;i6`\05-X;EW*.@`y\g9f8qyK88
     P20JFzV KC2018 10 13$t,+B@f0`Huu/-jT-!9;Ayn#f-CYXB]ROhuIh;4(c/#rG'#H@rCsL01
     P20JFzV KC2018 10 13fF9NDr,fU_;w4??OSGlb$XKy[MsSpl?qsee`G;XT'hmwe[+0oRV1L01
     P20JFzV |C2018 10 131ti\tJdm#Z:v+DFXR(FE%fZAqDj#!4NjKHn5pqIdGUdk!vw)wvbc807
     P20JFzV |C2018 10 13V]4M7(L)LQ+@f!kie9D)^6]#2F@i]TC1kxmq'tH2:hh`X-SV7kV=807
     P20JFzV |C2018 10 13':t:::]Qn_X01_*YLx:^ZGk6^]GUd;OX/C;`7v#QT3bnqu@NEOCP807

Station data:
(807) Cerro Tololo Observatory, La Serena  (S30.169136 W70.805900)  Chile.
   1.5-m Ritchey-Chrétien.
(F52) Pan-STARRS 2, Haleakala  (N20.707384 W156.255910)  US/Hawaii.
(K88) GINOP-KHK, Piszkéstető  (N47.917622 E19.893600)  Hungary.  Observer K.
   Sárneczky. 0.60-m Schmidt + CCD.
(L01) Višnjan Observatory, Tičan  (N45.290900 E13.749300)  Croatia.  Observer
   K. Korlević. 1.0-m f/2.9 reflector + CCD.

Orbital elements:  P20JFzV
   Perihelion 2018 May 6.554692 +/- 8.05 TT = 13:18:45 (JD 2458245.054692)
Epoch 2018 Oct 13.0 TT = JDT 2458404.5   Earth MOID: 0.5389   AutoNEOCP
M  42.73004 +/- 4.4                 (J2000 ecliptic)
n   0.26799184 +/- 0.0151           Peri.  181.31090 +/- 1.1
a   2.38262115 +/- 0.0893           Node   130.17222 +/- 1.4
e   0.3479323 +/- 0.0338            Incl.    8.54406 +/- 0.10
P   3.68                   H 18.7   G  0.15   U  9.9  
q 1.55363026 +/- 0.0236    Q 3.21161204 +/- 0.192
From 11 observations 2018 Oct. 10-13; mean residual 0".18
Residuals in arcseconds: 
181010 F52  .04+  .03-    181011 K88  .08-  .07-    181013 807  .12+  .05-    
181010 F52  .13+  .14+    181011 K88  .19+  .08+    181013 807  .02+  .15-    
181010 F52  .21-  .13-    181013 L01  .05+  .39+    181013 807  .32+  .09-    
181011 K88  .06-  .02-    181013 L01  .46-  .13-    

Ephemerides (geocentric):
Date (UTC) HH   RA              Dec         delta   r     elong  mag " sig PA
---- -- -- --  -------------   -----------  ------ ------ -----  --- ---- ---
2018 10 13 14  02 58 28.838   -00 04 40.53  1.0299 1.9704 152.7 21.0  .29 115
2018 10 13 15  02 58 26.606   -00 04 58.09  1.0299 1.9706 152.7 21.0  .32 115
2018 10 13 16  02 58 24.371   -00 05 15.64  1.0299 1.9707 152.8 21.0  .34 115
2018 10 13 17  02 58 22.134   -00 05 33.18  1.0300 1.9709 152.8 21.0  .37 116
2018 10 13 18  02 58 19.894   -00 05 50.71  1.0300 1.9711 152.9 21.0  .40 116
2018 10 13 19  02 58 17.651   -00 06 08.22  1.0300 1.9712 152.9 21.0  .43 116
2018 10 13 20  02 58 15.407   -00 06 25.72  1.0300 1.9714 152.9 21.0  .45 116
2018 10 13 21  02 58 13.159   -00 06 43.21  1.0300 1.9716 153.0 21.0  .48 116
2018 10 13 22  02 58 10.909   -00 07 00.68  1.0300 1.9717 153.0 21.0  .51 116
2018 10 13 23  02 58 08.657   -00 07 18.14  1.0301 1.9719 153.1 21.0  .54 117
2018 10 14 00  02 58 06.402   -00 07 35.58  1.0301 1.9721 153.1 21.0  .57 117
2018 10 14 01  02 58 04.145   -00 07 53.02  1.0301 1.9723 153.1 21.0  .60 117
2018 10 14 02  02 58 01.885   -00 08 10.43  1.0301 1.9724 153.2 21.0  .64 117
2018 10 14 03  02 57 59.623   -00 08 27.84  1.0301 1.9726 153.2 21.0  .67 117
2018 10 14 04  02 57 57.358   -00 08 45.23  1.0301 1.9728 153.3 21.0  .70 117
2018 10 14 05  02 57 55.091   -00 09 02.61  1.0302 1.9729 153.3 21.0  .73 117
2018 10 14 06  02 57 52.821   -00 09 19.97  1.0302 1.9731 153.3 21.0  .77 117
2018 10 14 07  02 57 50.549   -00 09 37.33  1.0302 1.9733 153.4 21.0  .80 118
2018 10 14 08  02 57 48.275   -00 09 54.66  1.0302 1.9734 153.4 21.0  .84 118
2018 10 14 09  02 57 45.998   -00 10 11.99  1.0303 1.9736 153.5 21.0  .87 118
2018 10 14 10  02 57 43.719   -00 10 29.30  1.0303 1.9738 153.5 21.0  .91 118
2018 10 14 11  02 57 41.437   -00 10 46.59  1.0303 1.9740 153.5 21.0  .95 118
2018 10 14 12  02 57 39.153   -00 11 03.87  1.0303 1.9741 153.6 21.0  .98 118
2018 10 14 13  02 57 36.866   -00 11 21.14  1.0303 1.9743 153.6 21.0  1.0 118
2018 10 14 14  02 57 34.577   -00 11 38.39  1.0304 1.9745 153.7 21.0  1.1 118
2018 10 14 15  02 57 32.286   -00 11 55.63  1.0304 1.9746 153.7 21.0  1.1 118
2018 10 14 16  02 57 29.992   -00 12 12.86  1.0304 1.9748 153.7 21.0  1.1 119
2018 10 14 17  02 57 27.696   -00 12 30.07  1.0304 1.9750 153.8 21.0  1.2 119
2018 10 14 18  02 57 25.397   -00 12 47.27  1.0305 1.9751 153.8 21.0  1.2 119
2018 10 14 19  02 57 23.096   -00 13 04.45  1.0305 1.9753 153.9 21.0  1.3 119
2018 10 14 20  02 57 20.793   -00 13 21.62  1.0305 1.9755 153.9 21.0  1.3 119
2018 10 14 21  02 57 18.487   -00 13 38.77  1.0305 1.9756 153.9 21.0  1.3 119
2018 10 14 22  02 57 16.179   -00 13 55.92  1.0306 1.9758 154.0 21.0  1.4 119
2018 10 14 23  02 57 13.869   -00 14 13.04  1.0306 1.9760 154.0 21.0  1.4 119
2018 10 15 00  02 57 11.556   -00 14 30.15  1.0306 1.9762 154.0 21.0  1.5 119
2018 10 15 01  02 57 09.242   -00 14 47.25  1.0306 1.9763 154.1 21.0  1.5 119
2018 10 15 02  02 57 06.924   -00 15 04.33  1.0307 1.9765 154.1 21.0  1.6 120
2018 10 15 03  02 57 04.605   -00 15 21.40  1.0307 1.9767 154.2 21.0  1.6 120
2018 10 15 04  02 57 02.283   -00 15 38.45  1.0307 1.9768 154.2 21.0  1.7 120
2018 10 15 05  02 56 59.959   -00 15 55.49  1.0308 1.9770 154.2 21.0  1.7 120
2018 10 15 06  02 56 57.632   -00 16 12.51  1.0308 1.9772 154.3 21.0  1.7 120
2018 10 15 07  02 56 55.303   -00 16 29.52  1.0308 1.9773 154.3 21.0  1.8 120
2018 10 15 08  02 56 52.972   -00 16 46.52  1.0308 1.9775 154.4 21.0  1.8 120
2018 10 15 09  02 56 50.639   -00 17 03.50  1.0309 1.9777 154.4 21.0  1.9 120
2018 10 15 10  02 56 48.303   -00 17 20.46  1.0309 1.9779 154.4 21.0  1.9 120
2018 10 15 11  02 56 45.965   -00 17 37.41  1.0309 1.9780 154.5 21.0  2.0 120
2018 10 15 12  02 56 43.625   -00 17 54.34  1.0310 1.9782 154.5 21.0  2.0 120
2018 10 15 13  02 56 41.283   -00 18 11.26  1.0310 1.9784 154.6 21.0  2.1 121